Valley International Airport Harlingen US
ICAO: KHRL
IATA: HRL
Category: Medium
Scheduled Services: Yes

Elevation: 36 ft
TransAlt. 18000 ft.

Airport Communications:
APP/DEP:120.7
ATIS:124.85
CTAF:119.3
GND:121.7
SAN ANGELO RDO:122.35
TWR:119.3
UNICOM:122.95

KHRL Zoom In..

If you have problems with the map follow the link
https://www.worldairports.se/pages/airport.php?
ICAO=KHRL

Runways:

(A) RW 13 length 7257 ft width 150 ft
---- / hdg 131

(B) RW 17L length 5949 ft width 150 ft
---- / hdg 176

(C) RW 17R length 8301 ft width 150 ft
ILS 111.50 / hdg 176

(D) RW 31 length 7257 ft width 150 ft
---- / hdg 311

(E) RW 35L length 8301 ft width 150 ft
---- / hdg 356

(F) RW 35R length 5949 ft width 150 ft
---- / hdg 356

Location; KHRL
Day. 18 / Time. 01.52 Zulu
* Altimeter: 29.85
* Temperature: 18° c. 64.4°f.
* Wind from: 040° Speed 13 kn.
Dewpoint: 11° c.
Visibility: 10 Statute Miles.
Clouds: Overcast 2100 ft.

KHRL 180152Z 04013KT 10SM OVC021 18/11 A2985 RMK AO2 SLP107 T01830111 $


Wind From 040°
Speed 13 kn.

 
 
jpsmedia.com for Web Design worldairports.se 2019   terms of use